SCP
0 0 0 0 0 0 0 0 0 0 0 0 0 0 0 0 0 0 0 0 0 0 0 0 0 0 0 0 0 0 0 0 0 0 0 0 0 0 0 0 0 0 0 0
0 0 0 0 0 0 0 0 0 0 0 0 0 0 0 0 0 0 0 0 0 0 0 0 0 0 0 0 0 0 0 0 0 0 0 0 0 0 0 0 0 0 0 0
0 0 0 0 0 0 0 0 0 0 0 0 0 0 0 0 0 0 0 0 0 0 0 0 0 0 0 0 0 0 0 0 0 0 0 0 0 0 0 0 0 0 0 0
0 0 0 0 0 0 0 0 0 0 0 0 0 0 0 0 0 0 0 0 0 0 0 0 0 0 0 0 0 0 0 0 0 0 0 0 0 0 0 0 0 0 0 0
0 0 0 0 0 0 0 0 0 0 0 0 0 0 0 0 0 0 0 0 0 0 0 0 0 0 0 0 0 0 0 0 0 0 0 0 0 0 0 0 0 0 0 0
0 0 0 0 0 0 0 0 0 0 0 0 0 0 0 0 0 0 0 0 0 0 0 0 0 0 0 0 0 0 0 0 0 0 0 0 0 0 0 0 0 0 0 0
0 0 0 0 0 0 0 0 0 0 0 0 0 0 0 0 0 0 0 0 0 0 0 0 0 0 0 0 0 0 0 0 0 0 0 0 0 0 0 0 0 0 0 0
0 0 0 0 0 0 0 0 0 0 0 0 0 0 0 0 0 0 0 0 0 0 0 0 0 0 0 0 0 0 0 0 0 0 0 0 0 0 0 0 0 0 0 0
0 0 0 0 0 0 0 0 0 0 0 0 0 0 0 0 0 0 0 0 0 0 0 0 0 0 0 0 0 0 0 0 0 0 0 0 0 0 0 0 0 0 0 0
0 0 0 0 0 0 0 0 0 0 0 0 0 0 0 0 0 0 0 0 0 0 0 0 0 0 0 0 0 0 0 0 0 0 0 0 0 0 0 0 0 0 0 0
0 0 0 0 0 0 0 0 0 0 0 0 0 0 0 0 0 0 0 0 0 0 0 0 0 0 0 0 0 0 0 0 0 0 0 0 0 0 0 0 0 0 0 0
0 0 0 0 0 0 0 0 0 0 0 0 0 0 0 0 0 0 0 0 0 0 0 0 0 0 0 0 0 0 0 0 0 0 0 0 0 0 0 0 0 0 0 0
0 0 0 0 0 0 0 0 0 0 0 0 0 0 0 0 0 0 0 0 0 0 0 0 0 0 0 0 0 0 0 0 0 0 0 0 0 0 0 0 0 0 0 0
0 0 0 0 0 0 0 0 0 0 0 0 0 0 0 0 0 0 0 0 0 0 0 0 0 0 0 0 0 0 0 0 0 0 0 0 0 0 0 0 0 0 0 0
0 0 0 0 0 0 0 0 0 0 0 0 0 0 0 0 0 0 0 0 0 0 0 0 0 0 0 0 0 0 0 0 0 0 0 0 0 0 0 0 0 0 0 0
0 0 0 0 0 0 0 0 0 0 0 0 0 0 0 0 0 0 0 0 0 0 0 0 0 0 0 0 0 0 0 0 0 0 0 0 0 0 0 0 0 0 0 0
0 0 0 0 0 0 0 0 0 0 0 0 0 0 0 0 0 0 0 0 0 0 0 0 0 0 0 0 0 0 0 0 0 0 0 0 0 0 0 0 0 0 0 0
0 0 0 0 0 0 0 0 0 0 0 0 0 0 0 0 0 0 0 0 0 0 0 0 0 0 0 0 0 0 0 0 0 0 0 0 0 0 0 0 0 0 0 0
0 0 0 0 0 0 0 0 0 0 0 0 0 0 0 0 0 0 0 0 0 0 0 0 0 0 0 0 0 0 0 0 0 0 0 0 0 0 0 0 0 0 0 0
0 0 0 0 0 0 0 0 0 0 0 0 0 0 0 0 0 0 0 0 0 0 0 0 0 0 0 0 0 0 0 0 0 0 0 0 0 0 0 0 0 0 0 0
0 0 0 0 0 0 0 0 0 0 0 0 0 0 0 0 0 0 0 0 0 0 0 0 0 0 0 0 0 0 0 0 0 0 0 0 0 0 0 0 0 0 0 0
0 0 0 0 0 0 0 0 0 0 0 0 0 0 0 0 0 0 0 0 0 0 0 0 0 0 0 0 0 0 0 0 0 0 0 0 0 0 0 0 0 0 0 0
0 0 0 0 0 0 0 0 0 0 0 0 0 0 0 0 0 0 0 0 0 0 0 0 0 0 0 0 0 0 0 0 0 0 0 0 0 0 0 0 0 0 0 0
0 0 0 0 0 0 0 0 0 0 0 0 0 0 0 0 0 0 0 0 0 0 0 0 0 0 0 0 0 0 0 0 0 0 0 0 0 0 0 0 0 0 0 0
0 0 0 0 0 0 0 0 0 0 0 0 0 0 0 0 0 0 0 0 0 0 0 0 0 0 0 0 0 0 0 0 0 0 0 0 0 0 0 0 0 0 0 0
0 0 0 0 0 0 0 0 0 0 0 0 0 0 0 0 0 0 0 0 0 0 0 0 0 0 0 0 0 0 0 0 0 0 0 0 0 0 0 0 0 0 0 0
Wind_Speed
10 9 12 12 13 11 7 7 6 4 2 3 7 10 11 10 9 9 9 8 8 8 8 9 10 9 9 9 10 12 12 11 9 8 8 7 6 5 4 4 6 6 5 5
10 16 14 12 9 9 9 9 8 6 2 2 7 12 12 12 11 9 7 6 6 5 4 7 9 9 9 9 9 11 12 11 10 8 7 6 6 4 4 4 5 6 6 5
20 11 14 14 11 10 10 9 8 6 4 5 8 10 10 8 8 6 5 5 4 4 4 6 8 8 8 8 9 9 11 11 10 9 6 6 5 4 3 4 4 5 6 6
17 14 12 14 13 11 9 8 6 5 4 5 4 6 7 7 5 6 6 5 3 3 3 5 7 8 8 8 8 8 9 10 10 10 9 10 7 6 5 5 4 5 6 6
12 14 14 13 13 11 6 2 3 4 5 7 8 8 7 7 6 6 6 5 4 3 3 4 7 8 8 7 7 7 8 9 9 10 10 10 7 5 5 6 7 6 5 6
13 10 13 12 9 7 5 3 2 3 3 8 10 9 7 5 5 5 5 5 4 5 4 4 6 7 7 7 6 6 7 8 9 10 10 10 9 8 8 8 8 6 4 4
16 12 9 8 9 7 7 5 4 5 6 8 6 7 7 3 3 4 4 3 4 5 6 5 7 7 8 8 7 6 7 8 9 10 10 9 9 9 10 9 8 7 5 4
16 15 13 8 10 9 11 10 8 5 5 3 4 7 6 3 4 5 4 4 4 6 6 6 7 7 8 8 8 7 8 8 9 9 9 8 9 7 6 7 7 7 6 5
14 13 14 12 9 10 12 13 10 6 6 4 5 5 5 5 4 4 4 4 5 6 6 7 7 7 8 9 9 8 9 9 9 9 8 8 8 7 7 8 7 6 6 6
8 10 12 11 8 10 9 9 6 6 5 6 7 9 7 8 8 6 5 5 5 6 7 7 7 7 8 8 8 8 8 9 9 9 8 6 7 8 8 7 7 7 7 7
14 7 7 9 15 16 12 11 8 7 6 4 4 4 3 7 8 8 6 6 6 6 7 7 7 7 7 8 8 8 8 8 8 8 7 7 7 7 7 7 7 7 7 8
14 5 7 9 8 9 14 14 12 9 7 7 4 5 2 6 7 6 5 5 5 6 6 6 7 7 7 8 7 7 7 7 8 7 7 7 7 7 7 7 7 8 8 7
13 7 9 7 6 8 11 14 15 10 6 7 8 5 4 6 6 6 5 5 6 6 6 5 6 7 7 7 7 7 7 7 7 7 7 7 7 7 7 7 7 7 8 7
11 7 10 13 9 12 11 13 14 14 11 11 11 8 5 6 7 7 7 7 6 7 6 6 5 6 6 7 7 7 7 7 8 7 7 8 8 7 7 7 7 7 7 7
7 10 11 9 7 13 14 16 18 18 16 12 11 11 9 7 7 7 7 7 6 6 6 6 6 5 6 7 6 7 7 7 7 7 7 7 7 6 6 6 7 6 6 6
6 7 10 12 9 6 10 15 18 19 17 15 12 12 7 4 3 3 5 6 6 6 7 7 6 6 6 7 7 6 7 7 7 7 6 6 6 6 6 7 6 6 6 5
8 7 8 10 9 6 12 14 15 15 15 14 16 14 7 6 5 5 5 5 6 6 6 7 7 6 6 6 7 7 7 7 7 6 6 6 6 6 6 6 6 6 6 5
11 10 5 6 8 13 11 10 13 13 13 13 11 8 8 7 5 4 5 6 6 6 7 6 6 6 5 6 6 6 7 7 7 6 6 6 6 6 6 6 6 5 4 5
10 10 6 5 7 8 6 9 13 14 13 13 13 11 8 5 1 3 4 5 6 6 6 6 6 7 6 6 7 7 7 7 6 6 6 6 6 6 6 5 5 4 4 4
11 9 6 5 7 9 7 10 8 6 10 10 12 12 9 8 5 6 4 5 6 7 7 7 7 7 7 6 7 8 7 7 6 5 5 6 6 6 6 5 4 3 3 4
11 10 10 7 6 7 4 9 11 9 9 8 11 10 10 11 8 6 7 6 8 8 8 8 8 7 6 6 7 7 7 6 5 5 5 5 5 5 4 4 3 3 2 2
12 10 11 9 8 8 5 10 11 7 3 4 6 7 8 7 8 8 8 8 9 8 8 8 8 7 6 6 7 7 6 6 6 6 5 5 4 4 3 3 3 2 2 2
11 11 8 10 9 4 10 9 7 5 5 4 4 5 8 8 8 8 8 8 8 8 7 7 8 8 6 5 6 7 6 6 6 6 5 4 4 3 3 3 2 2 1 2
7 9 7 6 8 8 9 6 5 4 5 5 5 7 8 8 9 9 9 8 8 7 7 7 8 8 6 5 6 7 6 6 6 6 4 4 3 3 2 2 2 2 2 2
5 6 7 8 5 8 8 9 8 6 6 6 6 6 8 10 9 9 9 9 8 7 6 7 7 8 7 7 7 6 6 6 6 5 4 3 2 2 1 1 2 2 3 4
7 8 10 8 8 7 8 9 9 9 8 8 8 6 6 8 10 9 9 8 8 8 7 7 8 8 7 7 7 6 5 6 6 4 3 2 2 1 1 0 1 3 4 7
Wind_Direction
195 209 214 214 216 238 270 286 286 286 127 188 248 264 266 260 252 247 243 238 232 225 201 176 169 160 160 164 164 165 167 173 168 167 171 169 171 165 161 155 158 158 159 155
200 217 220 221 220 222 241 257 270 281 194 220 259 268 268 256 248 240 238 243 241 236 201 167 157 155 161 167 168 166 168 172 172 170 169 165 160 160 154 149 155 159 155 150
213 210 210 222 220 220 227 236 251 272 307 268 264 273 261 252 228 218 220 227 234 222 200 164 155 159 162 170 172 172 171 169 169 161 155 148 137 131 136 152 158 161 153 147
223 219 208 209 217 216 230 226 239 267 284 280 274 290 274 263 225 201 200 200 203 190 186 168 162 163 168 168 164 167 164 163 165 161 164 164 163 164 168 161 159 159 154 151
216 204 207 212 212 210 216 189 227 246 259 271 265 266 263 241 223 193 180 165 159 155 166 169 165 162 158 147 149 158 158 161 165 166 168 168 169 166 154 153 158 162 158 154
227 210 206 210 211 206 171 157 236 255 258 256 235 234 267 234 206 162 142 138 147 151 152 152 142 136 131 130 139 152 158 162 166 168 172 178 176 169 160 161 163 162 156 153
222 221 211 189 186 187 173 167 202 208 211 238 208 215 246 220 122 117 122 125 136 141 146 148 141 143 138 140 150 160 162 164 167 170 178 184 179 173 168 165 164 160 158 160
204 209 200 193 189 183 188 193 204 205 213 210 184 220 241 187 135 125 135 143 141 141 144 152 155 154 150 155 164 173 173 171 171 176 182 181 176 171 167 164 161 165 165 165
197 210 184 187 193 187 187 208 232 276 298 294 248 232 220 182 150 149 158 154 150 147 147 154 157 160 158 165 174 181 178 172 174 177 178 178 175 168 163 161 159 159 155 154
206 196 182 175 184 217 207 188 193 211 219 239 246 239 227 182 180 177 170 162 151 144 149 157 163 167 163 167 175 181 178 173 173 175 179 176 170 163 158 156 158 155 150 148
230 202 169 169 192 193 197 206 197 197 220 217 242 247 203 164 157 157 157 150 148 154 159 162 166 167 162 162 170 177 175 168 171 174 171 165 162 156 153 155 157 153 149 153
213 202 190 204 202 206 203 206 201 198 208 213 240 266 120 118 124 131 136 140 144 146 154 158 161 161 161 167 172 174 172 168 170 168 163 162 157 153 155 158 158 153 154 160
197 199 178 179 200 210 219 211 211 219 232 220 215 234 159 136 138 147 160 163 159 156 155 157 160 165 167 169 172 172 172 169 166 164 162 161 160 160 163 163 159 157 159 162
191 200 202 193 183 180 202 211 210 211 222 232 232 234 202 176 174 177 182 184 175 165 162 163 169 173 169 169 172 171 172 166 164 163 164 166 168 167 167 163 160 161 160 162
183 211 223 228 206 178 191 201 208 215 219 223 228 230 229 210 195 188 185 185 171 159 164 170 174 175 168 167 171 168 167 163 160 162 166 169 164 161 161 159 159 159 161 167
180 206 221 232 231 210 207 205 208 218 224 234 244 248 244 250 212 198 196 183 173 173 172 170 172 170 168 167 167 163 161 158 154 159 163 159 157 158 159 158 157 158 164 167
190 199 203 222 216 224 234 215 210 215 219 222 235 241 244 248 231 215 207 184 179 179 170 169 172 171 164 160 158 159 156 148 149 153 155 157 156 156 156 155 158 165 171 172
195 203 201 198 194 223 232 201 208 219 223 218 228 230 221 225 221 195 186 186 187 174 162 162 158 151 144 139 138 137 136 138 143 148 153 152 149 151 152 158 168 173 173 179
203 198 201 190 203 238 229 199 196 207 230 218 223 228 223 208 199 247 207 178 169 155 145 143 140 134 128 128 129 126 128 132 141 150 151 150 149 153 159 168 175 176 176 187
202 200 198 186 199 220 216 186 172 177 244 219 211 217 206 166 198 230 181 152 136 121 116 118 117 115 118 122 123 126 132 135 144 145 143 142 147 154 163 170 174 175 176 186
188 195 200 193 210 244 218 155 133 173 229 207 199 202 186 183 194 160 129 117 117 115 115 116 115 115 121 123 123 126 127 135 135 129 129 134 142 150 157 161 163 161 162 170
183 182 193 194 207 226 173 149 170 196 175 165 170 173 164 156 134 130 126 123 120 120 122 121 115 112 114 119 123 124 128 129 123 124 127 132 136 139 143 146 152 154 161 190
196 189 180 194 208 181 171 184 191 153 153 155 147 142 142 141 144 139 136 134 132 133 129 121 121 118 115 117 124 128 130 126 123 123 125 126 125 126 134 141 147 156 175 204
203 191 191 195 198 183 187 188 179 164 153 145 140 140 142 144 145 143 143 141 138 133 130 126 127 126 124 117 111 120 124 123 122 124 124 123 124 129 129 130 151 174 202 223
191 185 207 213 181 160 191 195 181 164 138 129 129 143 149 143 147 149 147 146 142 134 131 132 134 132 129 119 113 116 120 121 120 119 119 117 120 132 136 159 196 206 216 219
194 189 197 208 189 175 195 194 177 165 168 162 152 146 146 148 150 146 145 142 137 136 134 132 129 127 125 120 117 115 116 118 119 119 118 119 121 119 131 210 302 282 271 275